Location: Barcelona
(41.3829°N, 2.1774°E)
Time: 21:27:41
(UTC+00:00)

ISS - Pass Details

Date: 06 July 2025
Orbit: 413 x 417 km, 51.6° (Epoch: 13 July)

Event Time Altitude Azimuth Distance (km) Brightness Sun altitude
Rises 20:45:38 0° 207° (SSW) 2,334 -0.2 -12.3°
Reaches altitude 10° 20:47:54 10° 194° (SSW) 1,477 -1.3 -12.6°
Maximum altitude 20:50:44 27° 135° (SE) 839 -2.8 -12.9°
Drops below altitude 10° 20:53:37 10° 76° (ENE) 1,488 -1.2 -13.3°
Sets 20:55:54 0° 63° (ENE) 2,355 -0.1 -13.6°
